Regional Weather Roundup
Issued by NWS State College, PA

Home | Current Version | Previous Version | Text Only | Print | Product List | Glossary On
Versions: 1 2 3 4 5 6 7 8 9 10 11 12 13 14 15 16 17 18 19 20 21 22 23 24 25 26 27 28 29 30 31 32 33 34 35 36 37 38 39 40 41 42 43 44 45 46 47 48 49 50
000
ASUS41 KCTP 030710
RWRCTP

REGIONAL WEATHER ROUNDUP
NATIONAL WEATHER SERVICE STATE COLLEGE PA
300 AM EDT WED JUN 03 2015

Note: "fair" indicates few or no clouds below 12,000 feet with no
significant weather and/or obstructions to visibility.

* = STATION THAT DOES NOT REPORT PRECIPITATION /E.G. RAIN...SNOW...ETC/
    THUNDER OR FOG.

PAZ002>004-007>009-013>016-020>023-029>032-030800-
WESTERN PENNSYLVANIA

CITY           SKY/WX    TMP DP  RH WIND       PRES   REMARKS
ERIE           CLEAR     55  44  66 SE5       30.15S
MEADVILLE      CLEAR     52  45  77 E6        30.15S
FRANKLIN*      CLEAR     48  45  87 CALM      30.17S
NEW CASTLE     FAIR      52  52 100 CALM      30.16R
BEAVER COUNTY  NOT AVBL
BUTLER*        PTCLDY    52  48  87 E8        30.16S
PITTSBURGH INT PTCLDY    54  52  93 E6        30.12F
PITTSBURGH     CLOUDY    58  49  72 E7        30.12
INDIANA*       CLEAR     50  50 100 CALM      30.19S
LATROBE        CLOUDY    57  54  88 CALM      30.14F
WASHINGTON CO* CLOUDY    59  54  82 E9        30.12F
$$

PAZ004>006-010>012-017>019-024>028-033>037-041-042-045-046-049>053-030800-
CENTRAL PENNSYLVANIA

CITY           SKY/WX    TMP DP  RH WIND       PRES   REMARKS
BRADFORD       FOG       38  37  97 CALM      30.18S VSB 1/2
DUBOIS         CLEAR     49  45  86 E5        30.16S
CLEARFIELD     NOT AVBL
JOHNSTOWN      NOT AVBL
ALTOONA        CLOUDY    55  50  83 NE3       30.16F
STATE COLLEGE  PTCLDY    49  49  97 CALM      30.17S
WILLIAMSPORT   CLEAR     49  46  90 CALM      30.17S
SELINSGROVE    MOCLDY    55  51  86 CALM      30.17S
FT INDIANTOWN  CLOUDY    55  54  94 NE3       30.16F FOG
CAPITAL CITY   LGT RAIN  57  56  96 E8        30.16S FOG
HARRISBURG     DRZL/FOG  57  55  93 E6        30.15S VSB 1
YORK           CLOUDY    56  54  93 E6        30.15F
$$

PAZ038>040-043-044-047-048-054-055-060>062-067>071-030800-
EASTERN PENNSYLVANIA

CITY           SKY/WX    TMP DP  RH WIND       PRES   REMARKS
SCRANTON       PTCLDY    52  49  89 E5        30.17S
MOUNT POCONO   CLOUDY    49  47  93 CALM      30.16S
ALLENTOWN      CLOUDY    55  52  89 CALM      30.18R
QUAKERTOWN*    CLOUDY    54  54 100 CALM      30.18S
READING        CLOUDY    55  54  96 CALM      30.16S
LANCASTER      CLOUDY    55  53  93 NE6       30.16F
COATESVILLE    CLOUDY    54  54 100 E5        30.17S
POTTSTOWN      CLOUDY    54  54 100 E3        30.18S
BLUE BELL      CLOUDY    54  54 100 E3        30.17S
DOYLESTOWN     CLOUDY    51  50  96 CALM      30.17S
WILLOW GROVE   NOT AVBL
NORTH PHILA    CLOUDY    55  49  80 NE8       30.18F
PHILADELPHIA   LGT RAIN  55  50  83 NE10      30.17F
$$


USA.gov is the U.S. government's official web portal to all federal, state and local government web resources and services.